Theta_e
303 304 304 304 304 305 305 305 305 306 306 306 305 305 305 306 306 307 308 310 311 311 312 312 312 313 314 316 317 317 318 319 320 321 322 323 322 323 324 325 327 327 327 326 326 326 327 328 329 330 329 329 329 330 331 332 332 332 334 335 335 335 335 334 335 336 335 332 328 327 327 327 329 328 326 327 326 327 327 327 328 330 330 332 333 332 332 332
303 303 304 304 304 304 305 305 305 305 306 306 306 305 305 305 306 307 308 309 310 311 311 312 312 312 313 315 316 317 317 318 319 320 321 322 322 322 322 324 326 327 327 327 327 327 328 327 328 329 328 328 329 329 331 332 332 332 334 334 334 334 334 333 333 333 334 334 331 328 327 326 328 327 326 326 325 326 326 327 328 329 331 332 332 331 329 329
302 303 303 303 303 304 304 304 304 305 305 306 306 305 305 306 306 306 307 308 309 310 311 312 312 312 313 314 315 316 317 317 318 319 320 321 322 322 322 324 325 326 327 327 327 328 329 328 327 328 327 327 328 329 331 332 332 332 333 334 333 332 334 334 333 333 334 334 332 329 328 326 327 327 326 326 326 326 326 327 327 328 330 331 332 330 329 328
302 302 303 303 303 303 303 304 304 304 305 305 306 306 306 305 306 306 306 308 309 310 311 311 312 312 312 313 314 315 317 317 318 318 317 319 320 321 322 323 324 325 327 327 327 327 328 328 328 328 327 328 327 328 331 330 331 332 332 333 332 331 333 333 332 333 332 332 331 330 328 328 328 327 326 326 327 328 327 327 327 328 328 330 332 329 328 328
302 302 302 302 302 302 302 303 304 304 304 305 305 305 306 305 306 306 306 307 308 309 310 311 311 312 312 313 313 315 317 317 318 319 318 317 317 318 320 321 322 324 326 327 327 327 327 327 327 328 328 328 327 330 331 329 330 332 330 331 331 330 331 331 331 331 331 330 330 330 329 329 328 326 326 326 327 328 327 327 327 327 327 328 330 329 327 327
303 303 302 302 302 302 302 302 303 304 304 304 305 305 306 306 306 306 306 307 308 309 309 310 311 312 312 312 313 315 317 317 319 320 320 320 317 316 317 318 321 322 324 327 327 327 327 328 327 327 327 326 327 331 331 328 331 332 331 330 331 331 330 330 330 330 330 330 330 330 329 327 327 327 327 326 327 327 325 326 326 326 326 328 329 328 326 326
303 303 303 303 303 302 302 302 302 303 303 304 304 304 305 306 306 306 306 306 307 308 309 310 311 312 312 312 313 315 316 317 319 319 319 321 320 319 317 317 319 320 322 325 327 328 329 329 327 327 327 326 326 328 329 328 330 331 331 330 330 331 330 330 330 329 329 328 329 329 327 326 327 327 328 327 327 327 326 326 325 325 327 330 331 328 324 323
303 303 303 303 303 303 302 302 302 302 303 304 304 304 305 305 306 306 306 306 307 307 308 309 310 312 312 312 313 315 316 316 317 319 320 320 320 320 319 317 318 319 321 324 326 328 329 329 328 327 326 326 326 326 327 327 328 329 329 329 330 330 329 330 330 330 329 328 329 328 327 327 327 328 328 327 326 326 326 326 325 324 325 328 332 330 325 323
303 303 303 303 303 303 303 303 302 302 302 303 304 304 304 305 306 306 306 306 306 307 308 309 310 312 312 312 314 315 315 314 315 318 319 319 320 320 319 318 318 319 320 322 326 327 329 329 328 328 326 326 326 325 326 327 327 328 328 329 329 328 328 330 330 330 330 329 329 329 328 328 328 329 329 328 327 327 326 326 325 324 323 324 329 331 328 326
303 303 303 303 303 303 303 303 302 302 302 302 303 304 304 304 305 306 306 306 306 307 308 309 310 311 312 312 314 314 314 314 315 316 316 318 319 319 320 319 320 321 320 321 325 327 329 329 328 328 328 327 326 326 327 327 327 327 328 328 328 328 327 328 329 329 329 329 329 329 329 330 329 330 330 330 329 329 328 327 325 324 324 323 325 328 328 328
303 303 303 303 303 303 303 303 302 302 302 302 303 303 304 304 304 306 306 306 306 307 307 309 310 311 312 313 314 314 314 314 316 317 317 316 317 319 320 320 321 322 323 323 325 327 328 329 329 328 327 327 326 326 326 326 326 326 327 327 327 328 328 327 328 329 328 328 329 329 329 329 329 330 330 330 330 330 329 328 326 324 324 324 324 325 326 328
303 303 303 303 303 303 303 303 303 302 302 302 302 303 303 303 304 305 306 307 307 307 307 308 310 311 312 313 313 313 314 315 317 317 318 317 316 318 319 320 321 322 324 324 325 326 327 328 328 328 327 326 325 325 325 325 326 326 327 327 326 326 327 328 327 328 328 327 327 328 329 329 329 329 330 330 330 330 329 329 328 326 325 325 324 324 325 326
303 303 303 303 303 303 303 303 303 303 302 302 302 303 303 303 304 305 306 307 307 306 307 308 309 310 312 313 312 311 313 316 317 317 319 318 317 317 318 319 319 320 322 323 324 325 326 327 327 327 327 326 326 325 324 325 325 326 326 326 327 328 327 327 327 327 327 327 327 327 330 329 328 328 329 329 329 329 330 329 329 328 327 326 326 325 325 326
302 304 303 303 303 303 303 303 303 303 302 302 302 302 303 303 304 304 305 306 306 306 307 308 309 310 311 312 311 311 312 314 316 317 318 318 318 317 317 318 318 318 319 320 322 324 325 326 326 326 326 326 326 326 325 325 325 325 326 326 327 328 327 325 325 326 326 327 326 327 329 329 327 327 328 329 329 329 329 329 330 329 329 328 327 327 326 327
298 303 304 303 303 303 303 303 303 303 303 302 302 303 303 303 304 304 305 305 306 306 307 308 309 310 311 311 311 312 313 314 315 316 317 318 319 319 318 317 318 317 318 319 321 323 324 325 326 325 325 325 325 326 326 325 325 325 327 328 327 328 326 323 324 325 325 327 326 327 328 328 327 326 326 327 328 329 329 329 330 329 329 329 328 327 327 328
294 299 303 304 303 303 303 303 303 303 303 302 302 302 303 303 303 304 304 305 306 306 307 308 308 309 311 311 311 311 313 313 313 314 316 317 319 320 319 318 317 317 319 320 321 323 323 323 325 324 324 326 326 327 327 327 326 325 326 327 326 326 325 323 324 324 325 327 327 327 329 328 326 325 325 326 327 328 329 329 329 330 329 329 329 329 328 328
292 295 301 303 303 304 303 303 303 303 303 303 302 302 303 303 303 304 304 305 305 306 307 308 308 309 310 311 311 312 313 312 312 312 314 316 318 320 320 320 318 319 322 321 322 324 324 323 325 325 324 326 327 327 328 329 328 326 325 326 325 325 324 324 324 324 324 326 327 327 329 328 327 325 325 325 326 326 327 329 329 329 330 329 330 330 329 329
293 292 297 302 303 303 304 303 303 303 303 303 303 302 303 303 303 304 304 304 305 306 307 308 308 309 310 310 311 313 313 312 312 312 313 314 316 318 320 321 321 321 323 323 323 324 324 323 324 325 325 326 327 327 329 330 328 327 326 326 325 324 324 324 324 324 323 324 326 328 328 328 327 326 325 325 325 325 326 328 329 329 329 329 329 329 329 329
296 294 293 298 302 303 304 304 303 303 303 303 303 303 303 303 303 303 304 305 305 306 307 308 308 310 311 311 311 312 313 313 312 312 313 314 315 317 319 320 321 322 323 322 323 323 323 323 324 324 325 326 326 327 328 328 327 327 326 325 325 325 324 323 323 323 324 325 326 328 328 327 327 326 325 325 324 325 325 326 328 328 328 327 327 327 327 328
297 296 294 294 299 303 304 303 304 303 303 304 303 303 303 304 304 304 305 305 305 306 307 308 308 309 311 311 312 312 312 314 314 314 314 315 315 316 317 319 320 321 321 321 322 322 322 323 324 323 323 324 325 326 326 326 325 326 327 327 326 325 325 324 323 323 324 326 326 327 326 326 325 325 324 324 324 324 324 324 326 327 327 326 325 325 325 326
297 297 296 294 295 301 303 304 304 304 303 304 304 304 304 305 305 305 305 305 305 305 306 307 308 309 310 311 312 313 313 314 315 315 315 315 315 315 317 318 319 319 319 320 321 321 322 323 323 322 321 321 323 324 325 324 324 325 327 328 329 328 326 324 324 324 323 325 326 325 325 324 324 324 323 323 323 323 323 323 324 325 325 325 325 325 324 325
297 297 296 295 293 297 302 304 304 304 304 304 303 304 304 305 305 306 306 306 306 305 305 306 307 309 310 310 311 312 314 314 315 315 315 316 316 315 317 317 318 318 319 320 321 321 323 323 322 321 320 320 321 323 325 325 324 324 325 327 329 329 327 326 324 323 323 325 326 325 325 325 324 324 324 323 322 322 323 323 323 324 324 325 325 325 324 324
297 297 296 295 293 294 300 303 303 303 304 304 304 304 304 304 305 305 305 306 306 306 306 305 307 308 309 310 311 311 313 313 314 315 315 317 317 315 316 318 317 318 319 320 320 321 322 322 321 321 321 321 321 323 325 325 325 325 325 327 328 327 327 328 326 324 324 324 325 325 325 324 324 323 323 323 323 322 323 323 323 324 323 324 325 325 325 324
297 297 296 296 294 293 298 302 303 303 304 304 304 304 304 304 304 305 305 306 306 306 307 306 307 308 309 309 310 311 312 312 313 315 315 316 317 316 316 317 317 317 318 319 319 320 320 319 320 321 321 321 322 323 324 324 325 325 325 326 327 325 326 326 325 324 323 323 324 324 325 324 323 324 323 322 322 322 323 323 323 323 324 324 324 324 325 325
296 296 297 297 295 292 297 303 303 304 304 304 304 304 304 304 304 304 305 305 305 306 307 307 308 308 308 308 309 310 312 312 313 314 315 316 317 316 315 316 318 317 317 317 318 319 319 318 319 320 321 321 322 323 323 323 324 324 324 324 324 324 324 324 324 324 324 325 324 324 326 326 323 323 323 322 322 322 322 322 323 323 323 323 323 323 324 324
294 295 296 297 296 293 298 304 304 303 304 304 304 304 304 304 304 304 305 304 305 306 307 308 308 308 308 309 309 310 311 312 312 313 315 316 316 316 316 316 317 317 317 317 318 318 318 317 318 319 320 322 322 322 322 322 324 324 324 323 323 324 325 325 325 326 327 326 324 324 326 326 323 323 322 322 322 322 322 322 322 323 323 323 323 323 323 324
294 294 295 296 296 295 298 303 303 303 304 303 303 303 304 305 304 304 304 304 305 307 308 307 307 307 308 309 309 310 311 312 311 313 314 315 316 316 316 316 316 317 316 317 318 318 317 317 318 318 319 321 321 321 321 321 323 324 323 324 324 324 325 326 326 327 326 325 325 325 325 326 325 324 321 321 322 321 321 322 322 321 322 323 322 323 323 323
294 294 295 296 296 295 297 300 303 303 304 303 303 303 303 304 304 304 304 304 305 307 307 308 308 308 308 310 310 310 311 312 312 314 314 314 315 315 315 316 316 316 316 317 318 318 317 318 318 318 319 320 320 320 320 322 322 323 324 324 324 323 325 324 325 326 325 324 326 326 325 327 326 324 322 322 322 321 320 321 322 321 321 322 322 323 323 323
295 295 296 296 296 296 298 300 302 303 303 303 303 303 303 304 304 304 303 304 305 305 306 308 308 308 309 310 310 310 310 311 312 315 315 313 314 314 314 315 315 316 316 316 317 317 317 317 317 318 319 319 319 319 320 321 321 322 324 324 323 324 325 324 323 324 324 325 326 325 325 326 326 323 322 322 321 322 321 320 321 321 321 323 323 323 323 323
295 295 295 295 295 297 299 300 302 303 303 303 303 303 303 304 303 303 303 303 305 305 306 307 308 308 310 310 310 310 311 311 312 314 314 313 314 313 313 314 315 315 315 316 316 316 316 316 316 318 318 318 317 318 320 320 320 322 324 324 324 324 324 323 322 321 324 326 325 324 324 325 325 322 320 321 321 322 322 322 322 322 322 323 323 323 324 324
295 295 295 295 296 297 298 300 303 303 303 303 303 302 303 304 303 303 303 303 305 305 306 307 308 309 309 310 310 310 310 311 312 313 313 313 314 313 313 314 314 315 315 315 315 315 316 317 317 318 318 317 317 317 318 319 320 322 323 322 323 323 323 322 320 320 324 326 325 323 322 324 325 322 319 320 321 322 324 324 324 323 322 323 324 324 324 324
296 295 295 295 296 296 297 301 303 303 303 303 302 303 303 304 304 304 304 304 304 305 306 307 308 308 309 310 310 310 310 311 311 312 312 312 313 313 313 313 314 314 315 315 315 315 316 316 317 317 317 318 318 318 318 319 320 321 321 321 322 323 322 322 322 322 323 324 324 323 323 325 325 321 320 322 322 322 322 322 322 322 321 322 323 323 323 324
297 296 295 296 296 295 297 301 303 303 303 303 303 303 303 305 304 304 305 304 303 304 305 307 307 308 309 309 310 310 310 311 311 311 311 311 312 313 313 313 314 314 315 315 315 315 316 316 316 318 319 318 319 318 318 319 319 319 320 321 321 322 322 321 321 321 321 321 322 322 324 325 324 321 320 321 321 321 320 320 320 320 320 321 321 322 323 323
297 297 297 296 296 295 298 302 303 303 303 303 303 303 304 305 303 301 303 304 303 304 305 306 307 308 308 308 309 310 310 311 311 311 311 311 312 312 312 312 313 313 314 315 314 314 315 315 316 318 318 318 318 318 318 318 318 318 319 320 320 320 320 320 320 319 319 319 320 321 323 323 322 320 319 319 318 319 319 319 319 319 319 319 320 321 321 321
299 299 299 298 296 296 300 303 303 303 303 303 304 304 304 304 301 300 303 304 304 305 306 306 307 307 308 308 309 309 309 310 311 311 311 311 311 311 312 312 313 313 314 314 314 314 314 314 315 316 317 317 317 317 316 317 318 318 319 320 320 319 318 318 319 319 319 319 319 320 322 321 318 318 318 318 318 316 317 317 317 318 318 319 319 319 319 320
301 301 301 301 299 299 302 303 303 303 303 303 304 304 303 303 302 302 303 304 304 304 306 307 307 307 308 309 309 309 308 309 311 311 311 311 311 311 311 312 312 313 313 313 313 314 314 314 315 315 316 316 316 316 316 317 318 319 319 319 319 318 317 319 319 318 318 319 319 318 320 319 317 318 317 318 319 317 317 317 316 317 318 318 319 318 319 319
302 302 302 302 301 301 302 302 303 303 303 304 304 303 302 302 302 303 303 303 304 304 306 307 305 306 308 308 309 309 308 308 310 310 310 311 311 311 311 310 312 313 313 313 313 315 315 314 314 315 316 316 315 316 317 316 316 318 318 318 318 316 316 317 318 319 319 319 318 317 318 318 317 319 319 318 319 317 317 317 316 317 318 318 318 319 319 319
302 303 303 302 302 302 302 303 303 303 304 304 304 303 302 302 303 303 303 303 304 304 306 306 305 305 307 307 308 308 307 308 309 309 310 311 311 311 310 311 312 313 313 313 313 314 314 313 314 313 315 316 315 316 318 317 315 317 316 316 318 318 317 317 317 319 319 318 318 317 317 317 316 317 317 317 318 317 317 317 317 318 318 318 319 319 319 319
302 303 302 302 303 302 302 303 303 303 304 304 304 303 302 303 303 303 304 304 304 304 305 305 305 306 307 307 307 307 307 308 309 309 310 310 310 310 309 309 311 311 312 312 312 313 313 313 314 314 315 316 314 314 317 317 315 315 315 315 317 319 320 318 317 318 318 317 317 317 317 317 316 315 315 315 316 316 316 316 317 318 317 317 319 319 320 320
302 303 302 302 302 302 302 303 303 303 304 303 303 302 301 302 303 303 303 304 304 304 304 304 304 306 307 307 307 307 306 307 308 308 309 308 308 308 307 307 307 307 308 310 311 312 313 312 313 314 315 317 315 313 314 317 316 316 316 315 315 316 317 317 316 317 318 318 317 317 316 316 315 315 315 315 315 315 316 317 318 317 316 316 318 319 319 319
303 303 302 302 303 302 302 303 303 303 304 303 302 303 302 303 303 302 302 303 304 304 304 303 304 305 305 307 307 306 306 306 306 307 308 308 307 308 307 306 304 304 306 308 310 311 312 312 312 312 313 315 315 313 313 315 316 316 315 315 315 315 315 317 317 317 318 317 317 318 317 316 315 315 314 314 315 315 316 317 317 316 315 316 316 317 317 317
302 302 301 302 303 302 302 303 303 303 303 302 302 303 302 302 303 302 302 302 303 304 304 304 305 304 304 305 306 306 306 306 306 306 307 307 307 308 307 305 304 305 305 307 309 308 308 310 311 311 312 312 313 314 317 318 316 315 314 314 315 315 315 316 317 316 316 316 316 317 317 317 315 315 315 314 313 313 313 314 314 314 315 316 316 316 316 316
302 301 301 302 302 302 303 303 303 303 302 301 301 302 302 302 302 302 302 302 303 303 303 304 304 304 304 304 304 305 306 305 306 306 306 307 307 307 308 307 306 307 306 306 307 306 306 309 310 310 311 311 310 313 318 318 315 314 314 314 315 315 314 315 316 315 315 316 316 316 316 316 314 314 314 313 312 311 311 312 313 314 315 315 315 315 315 315
301 301 301 302 302 303 302 303 303 303 302 301 301 302 301 302 301 301 302 302 302 302 302 303 304 304 304 304 303 304 304 304 305 305 306 307 307 306 307 307 307 307 306 305 306 306 306 307 307 307 308 310 310 311 314 314 312 312 313 313 314 314 314 314 314 313 314 314 314 315 314 314 313 312 311 311 311 311 311 312 313 313 313 313 313 313 313 314
302 301 301 301 301 302 302 302 303 303 302 301 301 302 301 301 301 301 301 302 302 302 302 302 302 303 303 304 305 307 305 304 304 304 304 305 306 306 306 307 307 307 306 305 306 306 306 306 306 305 305 307 309 310 310 309 308 309 308 309 312 313 313 313 313 313 314 313 312 313 313 312 311 311 311 311 311 311 311 311 311 311 311 311 311 311 312 312
301 301 301 301 301 301 302 302 302 303 302 301 302 302 301 302 302 301 301 301 301 301 301 301 301 302 303 303 305 309 307 304 303 304 304 304 305 305 305 306 307 307 307 306 306 306 306 306 306 306 305 305 306 306 306 306 305 306 307 307 309 310 310 310 309 310 312 312 310 311 312 312 312 311 311 310 310 310 309 309 309 309 309 309 310 310 310 310
301 301 300 301 301 301 302 302 302 303 302 302 302 302 301 302 302 301 301 301 301 301 301 301 301 302 303 302 304 306 306 305 304 304 304 304 305 305 305 305 306 306 306 307 306 306 307 306 306 306 306 305 305 305 305 305 305 305 306 306 306 306 306 307 306 306 307 307 306 307 310 310 309 308 308 307 307 307 307 307 307 307 308 308 308 308 308 308
300 300 298 299 301 301 301 302 302 302 302 302 302 302 301 301 301 301 301 301 301 300 301 302 301 302 302 303 303 303 304 306 305 304 303 303 303 304 304 304 304 304 305 307 306 306 306 306 306 306 306 306 306 306 305 305 305 305 305 306 306 306 306 306 306 305 306 306 305 306 308 307 306 306 306 305 305 306 306 306 306 306 307 307 307 307 308 308
298 299 298 298 299 300 301 301 302 302 302 302 302 302 301 301 301 301 302 301 301 301 301 301 302 302 303 303 303 302 302 303 303 303 303 302 302 302 302 303 303 303 304 306 306 305 306 305 304 304 305 305 305 306 306 306 305 305 305 306 306 306 306 306 306 306 306 306 306 306 307 306 306 306 306 306 306 305 305 306 305 306 306 306 306 306 306 307
295 296 296 297 299 300 300 301 302 302 302 302 302 302 301 301 301 301 302 302 301 301 301 301 302 302 303 303 302 302 302 302 302 303 303 302 302 302 302 302 302 302 302 304 304 304 305 305 304 303 304 304 303 304 305 305 306 306 306 306 305 305 305 305 305 305 305 305 305 306 306 306 305 306 306 305 306 305 305 305 305 305 305 305 305 305 305 306
292 292 293 295 299 300 301 301 301 302 302 301 300 301 301 300 299 300 301 302 302 302 301 301 302 302 302 302 302 302 302 302 302 302 302 302 302 302 302 302 302 302 302 302 303 304 305 305 303 303 303 302 302 303 303 304 304 305 305 305 305 305 305 304 304 304 304 304 305 305 305 305 305 305 305 305 305 305 305 304 304 305 305 305 305 305 305 306
290 291 292 294 298 300 300 300 301 302 300 298 297 298 299 298 297 298 301 302 301 301 301 300 301 301 301 302 302 300 300 300 301 301 301 301 301 301 301 301 301 301 301 301 302 304 305 305 304 303 302 302 302 302 302 302 303 303 303 304 304 304 304 304 303 304 304 304 304 304 304 304 304 305 305 305 305 305 305 304 304 304 305 305 305 305 306 306
Wind_Speed
15 15 15 15 15 15 15 15 16 16 16 17 17 18 19 19 19 19 19 19 19 19 18 17 17 17 17 18 18 18 17 18 19 20 24 28 27 24 25 22 18 18 16 12 10 12 14 14 13 13 14 14 10 9 12 13 14 10 4 5 5 4 6 5 4 3 4 5 4 5 6 6 4 9 6 3 4 5 4 6 6 5 5 5 7 10 9 9
15 14 15 15 15 15 15 16 16 16 16 17 17 17 18 19 19 19 19 19 19 19 19 17 17 17 17 17 17 17 17 18 20 24 28 27 24 24 27 25 19 17 17 14 10 7 10 11 11 12 13 13 11 9 11 12 13 9 4 4 6 5 4 3 4 3 5 8 4 5 5 6 2 7 8 5 6 9 5 6 9 8 8 7 9 11 8 8
15 15 15 15 15 16 15 16 16 16 16 16 17 17 17 18 18 19 19 19 19 19 18 18 17 16 16 16 16 15 16 16 21 30 31 26 25 26 27 26 21 17 16 15 13 9 8 7 8 11 11 11 12 10 8 11 11 10 7 4 6 7 1 3 8 6 9 12 7 3 4 3 2 3 6 4 5 9 8 8 11 12 13 13 13 13 11 10
16 16 16 16 16 16 15 15 16 16 16 16 17 16 17 18 18 18 19 19 19 19 18 18 17 16 16 15 14 13 12 13 18 27 27 26 28 27 27 25 21 19 17 15 15 13 11 8 6 9 10 8 12 9 5 11 10 7 9 5 7 10 3 7 10 7 8 6 3 1 4 4 5 4 5 4 4 5 9 13 15 15 18 18 16 15 14 13
16 16 16 17 17 16 16 16 15 16 16 17 17 16 17 17 18 18 18 19 18 18 17 17 17 15 15 14 14 11 6 6 6 11 16 23 27 27 28 24 20 21 18 15 15 15 13 10 8 9 9 6 9 7 5 15 15 7 10 11 12 13 7 7 3 3 4 3 4 3 2 4 3 4 6 5 5 2 0 7 14 15 16 21 20 15 15 16
16 16 16 17 17 17 17 16 16 16 16 16 17 17 16 16 17 17 18 18 18 18 17 16 16 15 15 14 13 11 9 5 2 3 7 14 21 26 26 22 20 21 21 18 14 13 12 11 11 12 9 5 7 7 8 17 16 6 11 15 16 15 11 8 1 3 5 3 6 5 1 2 0 3 9 9 11 5 5 3 7 8 6 15 21 16 14 16
16 16 15 16 17 17 17 16 16 16 16 16 16 16 16 15 16 17 18 18 18 18 17 16 15 14 14 13 14 14 17 17 6 2 1 0 8 18 21 20 21 22 23 22 18 13 10 12 14 13 9 6 8 10 12 16 15 11 9 13 16 17 16 12 4 3 2 4 7 6 6 3 3 6 8 9 15 11 5 5 2 5 7 10 17 15 12 14
16 16 15 15 16 16 17 16 16 16 16 16 16 16 16 16 16 17 18 18 18 18 17 17 16 15 14 13 15 15 21 29 20 7 4 5 7 7 16 21 24 26 26 25 23 17 12 14 15 13 9 7 9 11 14 16 14 13 11 12 14 17 18 14 7 2 3 6 7 7 7 7 9 9 8 9 11 10 8 8 8 5 6 10 13 13 12 13
16 16 15 15 15 15 16 16 15 15 16 15 15 15 16 16 15 16 16 18 18 18 18 17 16 16 14 15 14 13 23 31 26 19 14 8 10 7 11 22 26 28 27 27 26 21 16 15 16 14 9 9 12 11 14 13 10 12 13 14 14 18 18 12 10 8 6 9 8 7 8 10 12 10 9 12 13 12 10 9 10 9 9 10 12 12 12 13
16 16 15 15 15 15 15 15 15 14 15 15 15 15 15 16 15 15 16 17 17 18 18 17 17 17 15 16 14 11 20 24 21 23 22 17 9 8 4 16 21 24 25 26 26 24 21 16 14 13 10 11 11 11 13 10 9 13 15 14 15 19 20 14 12 10 10 13 11 8 7 10 13 9 6 9 12 14 14 13 11 10 11 12 12 13 13 14
17 16 15 15 14 15 14 14 14 14 14 15 15 15 15 15 15 14 15 16 17 17 18 18 18 19 17 17 16 12 14 16 15 17 20 23 17 7 0 7 13 18 20 21 24 26 23 17 13 12 8 6 6 9 14 13 13 14 12 11 12 15 18 17 14 10 8 10 10 10 9 12 13 10 9 11 12 11 13 16 15 13 12 13 14 14 14 15
20 17 16 15 14 14 14 13 13 13 14 14 15 15 14 14 14 15 15 15 16 17 17 18 18 20 18 18 24 22 14 10 10 12 16 24 23 15 8 4 8 13 16 17 19 21 22 21 18 12 6 3 5 5 8 12 14 13 8 7 9 10 12 14 13 10 8 7 9 8 7 10 10 11 14 16 17 16 14 12 14 15 15 15 15 15 16 16
21 19 17 15 15 14 14 14 13 12 13 14 15 15 14 14 14 14 15 15 15 16 18 18 18 19 16 18 28 28 18 10 8 10 13 17 20 20 16 11 7 8 12 15 16 15 19 24 21 17 10 5 4 2 4 6 10 10 7 6 6 7 9 11 12 13 12 10 12 7 4 7 8 13 19 19 20 20 18 17 15 14 15 16 16 16 17 17
19 19 18 16 15 14 14 14 13 12 12 13 14 15 15 15 15 15 14 15 15 16 18 17 17 18 16 22 26 23 21 16 11 10 11 11 13 17 19 17 13 9 8 11 14 14 16 21 20 19 16 10 7 7 6 4 5 5 6 6 5 6 7 9 12 14 11 12 16 11 6 8 7 10 18 23 25 23 21 22 20 17 16 15 15 16 17 17
17 17 17 16 15 14 14 14 13 11 11 12 13 14 14 15 15 15 14 15 15 16 17 17 17 15 13 21 23 18 19 21 20 16 11 10 9 11 15 16 14 10 9 10 13 15 16 18 17 13 12 13 11 7 4 3 4 3 5 6 6 7 7 8 12 14 11 11 17 13 6 7 7 10 15 18 24 26 24 23 22 21 19 17 16 16 18 17
17 17 16 17 16 15 14 14 13 11 10 11 12 13 14 15 14 14 15 15 15 16 16 16 18 16 8 10 16 18 19 22 27 23 15 12 9 8 9 11 11 10 11 13 14 15 17 17 14 10 8 6 5 2 2 3 5 5 7 7 7 8 7 6 10 14 13 10 15 15 7 5 5 10 18 20 22 23 21 20 21 22 22 21 19 18 18 19
18 16 15 15 16 16 15 14 13 11 10 10 11 12 14 14 13 14 14 15 15 14 14 13 14 15 11 9 10 13 20 24 27 26 22 18 12 9 7 8 11 12 12 13 13 14 16 15 9 7 7 4 3 4 3 5 7 7 7 7 8 9 8 5 7 11 15 12 12 13 11 9 6 8 17 20 21 22 17 16 16 18 20 20 20 19 18 18
19 16 15 14 14 15 15 14 13 11 10 9 10 11 12 13 12 13 13 13 13 10 9 11 10 7 11 18 15 9 14 23 24 24 25 23 17 11 10 10 11 13 12 9 10 12 12 12 7 4 4 4 5 7 6 7 8 7 7 7 8 9 9 8 6 6 13 15 12 11 11 12 10 10 16 20 18 17 16 15 15 15 17 18 19 19 19 19
19 17 15 14 13 12 13 13 13 12 10 9 8 9 11 11 11 12 13 11 10 7 4 9 14 8 0 8 16 13 11 15 19 23 23 24 22 16 13 11 10 14 13 6 7 11 10 7 7 6 6 8 9 10 12 11 6 6 7 8 7 7 9 9 9 8 7 9 10 11 11 11 11 11 13 21 23 20 19 17 16 17 18 18 19 21 22 22
19 17 15 14 13 12 11 12 12 12 10 9 8 7 7 7 6 7 11 14 16 15 8 7 17 20 6 9 5 13 14 12 16 21 21 21 24 21 16 11 8 10 11 6 6 12 12 7 6 10 12 15 15 14 15 13 9 9 9 7 8 6 6 7 8 9 5 5 8 10 12 12 13 11 9 17 23 21 21 18 18 21 22 22 22 22 23 23
20 19 17 15 13 11 10 11 12 12 10 8 8 7 7 6 4 3 7 14 20 23 20 14 15 21 18 11 4 9 12 12 16 19 21 23 24 20 15 11 6 5 9 8 5 7 10 8 9 14 16 15 14 13 14 12 13 14 10 7 8 7 6 7 8 8 2 4 6 6 9 12 12 10 9 14 15 14 17 18 19 22 24 25 24 25 26 25
21 21 19 17 14 12 10 9 10 10 9 8 9 10 9 7 6 4 3 6 13 19 24 23 19 19 17 13 8 8 7 9 14 18 20 22 23 18 13 12 7 4 8 9 4 4 6 8 12 16 14 12 12 11 12 13 13 13 9 7 8 6 6 8 9 11 3 2 3 5 7 10 10 10 10 12 13 14 19 21 21 23 23 23 25 26 27 26
20 21 21 19 15 13 11 9 10 9 8 8 8 11 12 11 8 5 3 4 6 12 20 24 25 23 17 11 9 8 6 7 10 17 22 21 20 20 14 10 8 7 8 8 6 5 5 8 14 14 10 11 13 12 12 12 11 10 8 7 8 7 6 6 8 11 7 3 4 5 8 8 8 11 11 14 18 20 23 26 25 25 24 24 24 26 26 26
19 20 21 20 16 13 11 10 9 7 7 7 8 11 11 11 9 5 5 4 4 7 15 21 24 23 19 13 9 8 7 10 10 13 23 24 20 18 14 10 10 9 7 9 11 9 7 8 12 12 11 12 13 12 12 10 8 11 12 10 9 9 9 8 8 9 8 7 5 4 8 9 8 11 12 12 17 20 25 27 27 28 29 28 28 27 28 28
19 18 20 20 17 12 8 7 6 5 7 7 7 9 9 9 7 3 2 3 3 4 8 13 17 19 20 16 13 10 5 10 13 13 21 27 21 13 11 12 9 8 10 12 11 10 10 11 10 11 12 13 12 11 12 10 7 9 11 13 13 11 10 10 10 7 6 8 5 3 7 9 8 12 14 11 12 17 20 21 23 28 30 31 32 32 32 32
18 17 18 18 16 11 5 3 4 6 7 6 7 6 5 5 2 2 2 2 3 3 4 8 10 12 16 15 15 10 3 8 15 15 18 25 22 11 8 11 6 7 12 9 7 5 7 11 11 9 10 12 12 10 11 11 8 8 8 12 14 12 10 10 10 6 5 6 3 5 7 10 7 9 11 10 12 16 16 15 18 25 28 29 32 33 33 34
18 16 16 17 15 11 6 2 4 7 5 6 7 4 3 4 3 3 3 2 3 5 7 8 9 9 12 14 17 12 2 5 12 16 17 21 23 12 4 8 7 7 8 3 3 3 5 11 11 10 9 10 10 9 10 11 8 6 4 6 9 12 13 12 10 7 5 5 4 2 4 8 8 7 8 9 11 14 13 12 14 20 25 28 31 32 33 35
18 15 16 17 12 7 5 5 6 6 5 7 6 2 3 5 7 3 2 2 2 5 5 5 7 7 9 13 22 17 4 1 6 12 16 17 21 12 3 7 7 7 7 5 5 5 7 11 12 12 11 8 8 8 8 10 8 5 3 4 5 8 10 10 9 7 5 6 7 4 4 6 9 7 7 9 12 15 14 12 11 14 21 25 27 30 32 35
19 16 16 17 9 4 3 6 6 5 4 6 7 4 2 9 8 2 1 2 1 3 2 4 6 7 11 12 19 19 9 3 2 6 13 14 17 12 2 5 5 4 5 4 6 6 5 5 6 9 10 7 7 7 7 9 9 6 5 4 1 1 2 4 4 5 6 6 7 8 8 7 11 8 7 9 11 13 13 11 10 14 21 24 25 28 30 33
19 17 15 15 9 3 3 5 4 5 3 4 7 2 10 12 5 2 1 2 2 2 3 3 3 7 13 10 9 13 10 6 2 4 8 9 13 12 3 1 2 2 3 3 6 8 8 7 5 3 7 8 7 6 7 9 8 3 4 2 1 2 2 1 1 1 4 7 9 13 14 11 12 9 8 9 9 10 10 9 10 13 19 23 25 26 27 29
20 18 16 13 9 6 5 3 2 2 1 3 5 7 13 6 0 2 3 1 2 2 3 1 2 6 12 10 6 7 8 6 4 4 3 3 7 8 4 2 1 0 3 3 4 8 10 8 4 2 4 5 7 6 6 8 5 5 4 2 0 2 1 2 1 2 3 7 10 15 16 14 13 10 5 6 9 10 9 8 8 9 14 21 23 24 25 26
20 18 16 13 11 9 7 6 4 4 3 2 3 9 8 1 1 2 2 2 2 2 3 2 1 3 7 8 7 8 8 5 5 5 3 2 4 5 4 4 3 3 5 5 5 6 6 7 6 3 4 3 5 5 5 5 4 5 4 3 3 2 2 2 3 4 5 7 7 10 12 11 13 13 8 9 10 8 7 8 9 10 12 17 19 21 24 24
18 16 14 11 11 9 9 8 6 6 4 3 5 5 2 1 1 1 2 2 2 2 3 5 2 2 4 5 6 8 7 5 6 6 4 3 4 5 5 6 4 2 2 4 5 4 3 6 8 4 2 4 6 5 5 5 5 7 6 5 5 4 4 5 5 5 6 8 7 8 9 7 8 10 12 15 14 12 16 21 22 20 19 19 17 17 19 21
11 9 7 4 5 6 11 10 8 7 6 6 5 2 1 1 1 1 1 2 2 2 2 3 4 2 2 3 3 5 5 5 6 6 5 4 3 3 4 7 7 3 1 1 3 4 5 6 7 7 5 8 10 9 7 4 4 7 6 5 6 5 5 6 5 6 6 7 7 8 7 6 5 5 8 13 16 20 27 32 30 30 32 31 26 20 19 21
11 11 10 9 5 8 13 11 9 8 8 6 3 1 0 2 1 1 2 3 2 2 2 1 3 2 2 2 1 1 0 3 6 5 5 5 4 4 4 6 8 5 1 2 2 3 6 6 5 12 13 12 11 11 9 5 4 4 4 4 6 7 7 6 6 7 4 5 5 5 5 4 3 7 6 6 9 14 21 26 26 29 34 36 33 30 28 26
12 13 12 10 8 10 11 9 8 9 8 5 2 1 1 1 1 1 3 4 3 4 4 1 3 2 1 1 1 1 2 0 4 3 3 4 5 5 4 3 7 9 6 4 2 1 5 4 1 5 11 13 14 13 12 9 5 2 3 5 6 6 6 6 8 7 5 8 6 4 6 4 3 9 8 7 10 8 10 14 16 20 27 29 30 32 31 28
13 14 12 10 9 8 8 8 9 9 6 2 1 2 1 1 1 1 3 5 2 2 4 2 2 2 1 1 0 2 1 1 2 2 2 3 3 5 7 5 6 10 10 7 4 1 3 4 4 2 7 8 9 9 8 10 9 4 3 7 4 1 1 2 5 5 6 10 7 7 11 8 5 6 5 9 13 12 11 11 11 13 17 20 25 30 31 29
12 13 12 9 7 6 7 8 8 7 3 1 1 3 1 1 2 3 3 4 2 1 3 2 1 1 2 3 2 1 1 2 3 3 2 2 2 4 6 5 5 10 13 11 5 1 1 4 6 6 8 4 2 1 3 9 10 4 0 3 3 2 2 3 3 5 7 8 6 9 12 9 7 6 4 7 11 10 10 10 10 10 11 14 19 22 25 27
9 8 8 8 4 6 7 6 7 5 1 1 2 2 1 2 4 5 6 6 4 2 2 4 2 1 2 2 2 3 3 1 2 1 1 1 2 2 4 4 2 5 8 9 6 2 2 1 4 4 5 1 2 1 3 7 7 1 3 3 2 1 4 4 2 3 6 8 7 8 9 6 6 7 9 11 11 10 10 9 8 8 10 15 19 22 22 21
6 4 5 6 3 7 7 6 5 2 1 1 2 1 1 2 4 8 9 6 3 2 2 5 5 1 1 1 1 2 3 2 2 2 1 1 2 2 4 6 5 7 7 3 3 2 3 3 3 1 2 1 0 2 5 7 5 1 2 4 3 1 2 2 2 3 4 5 5 7 8 5 3 5 9 12 12 11 10 9 7 5 8 11 9 11 9 2
6 3 4 5 2 7 7 5 3 1 1 2 2 0 1 2 4 8 10 7 4 2 1 2 4 3 2 1 2 1 1 1 2 1 1 1 3 1 2 4 4 6 8 5 3 2 0 3 4 3 2 2 5 4 5 7 4 3 5 6 5 4 3 4 5 5 4 4 4 7 8 5 1 2 4 6 6 4 5 5 4 7 14 18 16 13 13 16
7 3 3 4 2 7 5 2 1 1 1 2 1 2 3 4 4 6 9 9 6 2 0 1 2 3 3 3 2 1 1 1 2 1 1 1 1 1 1 4 5 2 2 1 1 0 1 1 2 5 5 4 7 4 1 2 3 4 5 4 4 4 4 6 7 4 4 5 4 7 9 6 3 5 7 7 7 9 13 12 10 12 16 18 19 20 19 18
7 4 3 2 3 5 2 1 2 2 1 1 0 1 3 4 4 6 7 6 6 3 2 1 1 2 3 3 3 3 3 0 2 2 1 2 2 2 3 3 6 4 1 1 2 3 2 1 1 3 4 4 7 4 3 4 1 3 4 4 5 5 5 7 6 3 2 3 3 5 7 4 1 4 7 9 11 14 17 17 14 14 17 18 18 19 19 19
5 5 4 3 3 3 1 1 1 1 2 0 1 0 1 2 3 5 5 5 5 4 3 1 2 3 3 2 2 4 4 2 1 0 0 1 1 4 4 2 3 1 1 0 1 2 2 1 1 2 3 3 4 2 2 3 2 1 2 3 5 6 7 8 5 4 5 7 7 7 6 4 3 6 9 11 13 14 13 15 17 16 18 20 21 20 20 20
3 3 4 4 3 2 2 3 2 2 2 1 1 0 1 2 1 3 4 5 5 5 4 2 4 5 3 2 3 3 3 1 1 1 2 1 1 5 5 2 2 1 2 2 1 2 1 1 2 1 2 3 2 2 1 0 1 1 3 5 4 3 6 6 4 5 7 7 9 9 7 7 7 10 13 12 11 11 12 14 17 18 19 23 26 25 24 24
3 2 3 3 3 2 2 3 4 3 1 0 1 0 1 2 1 2 2 4 5 5 5 4 5 5 2 1 2 2 1 1 1 1 3 3 1 2 2 1 2 3 4 3 1 2 0 2 3 4 5 6 6 7 5 2 2 4 6 8 6 4 6 6 4 5 4 4 7 7 5 6 8 10 12 9 8 11 13 15 18 20 22 24 27 27 27 29
3 2 2 1 1 1 1 2 3 3 1 1 1 1 0 2 1 0 1 1 3 5 4 3 3 3 3 2 2 2 1 1 2 2 2 3 3 2 4 5 4 6 7 4 4 3 1 3 5 7 10 10 10 11 11 8 7 8 9 11 9 8 9 8 7 8 7 6 8 8 5 6 7 11 14 13 10 11 12 13 17 23 27 29 30 30 32 34
4 2 2 1 1 1 1 2 4 4 1 1 1 1 0 3 2 2 1 1 2 4 2 2 1 3 4 4 4 3 1 1 2 2 2 3 3 3 4 5 6 8 7 4 5 4 1 4 5 7 10 12 11 12 12 11 10 10 11 12 12 11 11 11 11 11 10 9 9 9 10 11 11 12 15 17 15 14 16 20 24 28 32 34 34 34 36 38
5 3 2 2 1 1 3 5 6 4 1 2 1 2 1 2 3 3 2 1 1 1 2 2 3 4 5 4 4 3 3 3 3 2 1 2 3 2 3 3 5 7 5 3 4 4 2 4 6 6 8 11 12 12 13 13 12 12 13 14 14 13 13 13 13 12 12 13 12 12 16 17 13 11 14 20 23 23 25 28 29 30 32 34 34 34 35 38
5 3 3 3 3 1 2 4 4 3 1 1 1 1 1 2 4 5 3 1 2 1 3 2 5 6 6 6 5 5 4 6 7 5 3 3 3 3 2 2 3 5 3 1 2 3 3 4 6 3 5 9 11 11 12 13 14 14 14 14 13 13 14 13 12 12 13 14 15 16 18 16 11 11 15 24 30 27 24 25 27 29 31 32 32 33 34 36
5 5 4 3 2 1 1 1 2 2 1 1 2 4 4 5 7 8 3 2 3 2 1 3 6 5 5 5 5 5 7 9 9 10 10 8 7 6 4 4 5 6 5 3 1 1 2 4 5 2 4 8 10 11 12 13 13 14 14 14 13 13 13 13 13 13 13 14 15 15 14 11 9 11 14 19 23 21 18 22 26 27 30 30 30 31 33 35
6 4 5 4 2 1 2 2 2 1 1 2 3 4 4 5 8 7 3 2 3 6 8 8 7 5 4 5 3 6 10 12 12 13 14 13 13 13 12 12 12 8 5 3 3 2 2 2 3 3 4 7 10 12 11 10 10 10 10 12 15 16 17 16 15 15 15 14 12 11 11 10 10 11 13 16 17 16 17 22 25 25 26 28 28 29 30 31
Wind_Direction
302 300 297 292 289 287 282 279 276 271 268 264 262 259 256 255 252 250 249 249 248 246 244 245 246 247 246 245 248 253 257 257 253 253 250 244 241 240 240 237 230 228 230 232 238 241 241 244 239 229 237 249 254 269 276 261 245 237 225 241 237 232 236 226 232 233 226 230 199 172 215 248 180 160 186 192 203 223 183 173 185 176 173 177 164 165 176 172
302 300 297 294 291 288 284 281 276 273 269 265 263 260 257 254 253 250 248 249 249 246 244 244 244 246 247 246 246 252 260 261 260 255 246 242 243 241 240 237 229 225 228 225 224 236 248 247 243 240 239 248 246 244 271 264 239 236 235 235 237 237 232 251 288 308 266 250 220 157 197 257 217 151 172 185 202 205 203 188 190 184 175 186 180 180 192 181
304 300 298 295 292 288 285 281 277 275 271 266 263 260 257 254 252 251 248 248 248 247 245 242 242 243 244 245 245 251 260 269 269 258 247 243 245 241 240 238 230 225 225 222 214 210 228 241 245 243 237 244 241 230 265 275 247 232 240 244 242 247 203 234 253 242 240 240 231 174 158 252 272 137 160 196 220 197 205 200 189 192 189 192 196 198 203 197
308 303 299 295 292 288 285 282 278 275 273 269 263 259 257 254 252 251 248 247 247 246 245 243 241 240 241 242 242 246 264 288 278 263 256 248 246 244 242 239 230 225 223 221 219 215 211 215 229 229 222 234 245 235 245 266 264 240 235 241 251 260 245 218 229 237 243 232 270 356 70 309 261 195 184 213 247 210 213 213 202 200 195 195 203 207 207 207
313 307 302 298 294 289 284 281 278 275 273 271 267 262 257 253 252 250 248 247 245 244 243 243 240 238 240 237 238 237 246 300 276 250 251 245 244 243 241 239 230 224 220 217 218 219 217 218 223 218 214 224 244 246 227 240 253 273 258 253 258 265 267 242 237 359 322 23 307 287 74 289 245 196 223 226 245 257 201 217 204 200 197 197 201 205 206 210
316 312 307 303 298 292 285 280 277 274 272 271 269 265 259 254 251 250 248 246 244 243 241 241 238 237 237 232 235 225 208 224 108 133 224 234 239 239 238 234 226 222 217 215 213 210 213 219 220 214 212 219 227 232 239 232 222 236 272 263 261 266 270 268 65 44 319 334 268 273 354 265 80 239 235 226 237 246 35 50 168 166 167 190 195 197 200 208
319 315 310 307 303 298 291 283 277 272 271 270 268 265 261 257 252 250 248 246 243 241 240 239 237 235 233 229 231 225 222 228 222 53 51 212 249 239 233 221 213 216 214 213 210 197 199 211 213 214 214 220 228 229 248 248 217 206 252 260 260 264 261 252 193 126 273 277 262 291 332 283 246 261 247 230 235 242 286 313 249 147 126 161 186 195 202 210
323 318 313 310 307 303 296 287 279 273 270 268 267 265 263 258 253 250 247 245 242 238 239 237 234 234 230 225 227 232 236 230 222 240 298 7 353 270 222 205 200 206 209 210 209 197 197 210 208 212 219 222 229 227 233 248 240 228 242 255 262 267 262 252 241 208 210 254 270 284 296 268 253 268 280 262 247 251 262 269 268 231 170 167 188 205 208 211
327 322 317 313 310 307 300 292 284 276 270 266 265 264 262 258 253 251 247 245 242 237 236 233 231 231 227 224 226 237 241 235 228 234 250 277 345 347 207 199 196 198 203 209 208 201 202 213 208 210 234 247 243 241 232 233 241 236 241 253 261 266 265 256 256 262 248 249 255 258 262 258 257 266 275 263 255 260 260 251 244 235 221 195 194 211 211 211
333 326 321 315 312 311 306 296 287 279 272 266 264 262 262 259 255 252 248 245 241 236 234 230 228 228 226 222 222 239 243 241 240 238 244 254 293 350 176 194 198 193 197 205 206 204 206 211 208 216 249 268 260 263 257 249 252 241 238 252 262 265 262 250 239 241 253 256 246 247 257 254 255 254 253 250 248 248 245 241 231 218 221 212 202 209 212 214
342 332 325 318 313 312 309 302 290 281 274 267 263 260 260 259 256 252 247 245 240 234 233 229 227 228 227 223 220 231 240 241 243 237 241 246 252 287 298 183 197 194 197 204 206 207 207 209 214 224 242 266 263 265 263 263 272 263 251 260 273 278 271 255 241 227 243 258 244 248 261 256 253 246 243 245 248 254 244 232 224 217 216 217 216 215 215 217
352 342 331 322 316 313 311 308 296 285 276 269 264 260 258 256 254 250 244 244 240 233 232 229 227 227 226 230 228 224 225 238 238 218 228 242 242 249 259 219 194 195 201 208 212 211 209 211 219 226 227 258 252 257 267 257 262 270 273 273 273 283 274 256 250 240 236 243 240 253 268 251 244 238 241 243 244 254 265 251 232 225 219 216 219 221 221 221
355 348 340 330 322 318 315 312 303 290 278 270 264 259 257 254 251 248 242 240 237 233 232 230 228 229 230 237 235 227 222 230 233 205 214 240 241 238 244 246 234 211 208 212 215 217 216 218 224 232 239 276 269 283 304 255 245 250 258 268 265 270 260 243 245 241 235 235 230 237 270 245 238 234 232 235 240 242 246 249 247 243 233 222 217 221 224 223
349 350 348 340 328 321 318 314 306 296 282 271 265 259 256 253 248 245 243 240 235 231 232 231 229 229 234 241 238 233 228 227 225 205 203 230 240 237 240 243 247 240 222 215 212 217 223 224 228 232 238 256 281 310 309 252 235 238 242 249 240 251 248 229 230 230 230 228 215 214 251 245 244 244 228 224 228 230 231 232 233 239 243 233 219 218 222 224
339 346 351 347 336 325 319 316 311 301 286 273 265 260 257 254 249 245 245 243 238 234 232 232 229 223 238 248 243 236 230 226 223 212 200 216 228 232 237 240 246 241 222 213 209 213 223 227 225 219 226 243 263 306 314 236 215 200 227 239 222 237 251 234 229 226 225 218 205 206 246 244 238 258 255 243 229 221 223 228 226 226 233 237 229 221 220 223
331 335 343 348 345 334 322 317 313 304 290 276 265 261 258 255 252 245 244 242 238 235 231 230 228 225 241 257 244 235 227 223 225 219 203 205 213 216 224 230 231 218 209 211 208 209 217 222 224 216 210 223 235 259 295 250 223 198 216 235 227 232 244 235 230 228 226 219 204 206 228 244 224 235 246 254 249 236 224 224 227 224 225 231 232 229 224 221
326 327 330 338 344 341 327 317 315 308 295 280 267 264 262 258 255 249 245 242 238 233 228 226 224 229 241 249 240 226 223 224 226 223 214 208 205 210 211 205 204 198 198 209 209 207 208 206 208 216 211 191 175 181 206 226 216 208 212 231 238 236 245 237 217 216 219 223 213 209 225 241 253 255 248 246 247 250 241 229 232 229 226 231 236 237 235 230
324 320 319 323 333 339 334 323 317 311 297 284 273 266 265 261 256 252 248 241 239 236 234 225 213 223 239 240 236 212 220 228 226 222 220 217 210 212 218 202 191 190 191 200 204 198 193 189 187 199 202 196 191 187 204 213 210 215 210 220 235 232 245 253 244 224 216 219 216 212 227 237 243 257 262 261 256 255 250 236 235 238 235 235 239 242 243 243
327 318 312 312 317 329 336 329 319 312 299 287 276 263 265 264 258 259 253 240 229 215 224 214 203 202 284 253 235 219 218 220 221 221 215 217 215 213 224 214 193 190 183 176 196 192 179 172 184 201 210 210 201 196 209 212 208 243 241 236 242 230 238 244 252 263 238 227 223 221 236 243 242 237 239 250 253 256 255 242 233 240 245 244 243 242 242 243
327 320 311 305 307 316 330 333 323 313 304 292 280 264 256 245 244 259 239 229 227 215 222 224 209 216 256 348 281 216 219 201 201 210 205 209 211 209 219 223 213 202 189 176 185 186 182 184 197 206 213 211 205 202 213 213 210 246 265 268 272 265 257 250 249 252 215 216 235 231 241 245 247 248 238 242 243 244 250 245 233 234 240 244 245 244 242 241
324 322 315 304 299 302 315 331 327 316 311 295 271 251 237 220 212 236 209 220 233 227 230 242 230 226 241 299 318 188 208 201 192 200 199 202 205 203 206 207 215 219 208 199 163 168 185 199 210 211 216 217 211 207 216 218 211 229 245 257 271 271 276 290 292 284 195 186 250 257 260 257 251 253 257 260 254 243 244 244 238 236 234 234 239 245 246 243
324 322 318 306 296 294 298 315 321 315 308 288 259 239 234 242 233 216 194 231 245 237 234 238 244 246 246 263 261 209 209 204 198 203 197 190 194 197 187 189 205 206 207 204 154 159 200 216 217 214 216 219 223 215 215 220 217 226 233 237 252 253 269 285 289 293 300 143 270 290 277 268 265 262 255 259 265 263 257 252 247 244 241 233 231 238 244 244
321 320 319 311 298 291 288 303 318 312 300 284 263 246 242 261 255 221 240 283 270 245 235 233 237 247 251 248 245 239 241 223 208 206 198 186 189 197 184 178 208 213 204 202 191 191 203 222 222 219 217 215 222 218 214 222 224 228 227 227 241 236 245 263 264 276 283 264 266 282 279 269 265 266 258 252 258 264 261 257 254 250 249 244 236 235 238 240
317 320 322 319 307 290 287 309 322 317 309 291 268 257 249 265 274 250 243 271 293 246 233 234 233 236 242 243 235 225 233 236 228 207 197 190 187 195 194 183 198 218 216 204 208 215 222 226 214 210 217 220 221 217 215 221 226 230 226 223 234 229 223 231 245 265 275 270 265 284 284 270 250 255 259 253 253 254 251 250 250 247 247 248 246 242 238 239
312 318 323 324 316 296 291 324 337 342 332 310 284 277 264 268 276 259 239 272 279 234 224 229 230 231 230 232 234 222 233 245 236 220 201 194 187 182 199 197 190 214 218 210 214 224 234 234 214 198 207 217 221 221 217 215 223 232 225 222 229 232 228 230 236 247 259 254 226 197 265 266 238 239 248 247 243 245 243 240 241 240 241 242 243 243 241 241
312 312 318 325 323 311 306 344 353 345 338 315 305 298 264 252 249 169 167 289 273 186 169 192 203 220 215 211 213 207 254 255 232 225 208 197 193 179 192 197 188 217 213 211 224 230 231 234 233 219 206 207 215 222 217 214 225 234 219 218 227 235 239 238 234 227 238 255 220 167 239 266 253 231 238 238 236 240 237 235 237 237 237 236 238 239 238 240
320 311 313 322 326 323 316 329 344 343 342 320 316 301 234 196 157 150 157 268 254 161 142 173 187 196 198 195 187 179 248 241 210 220 216 202 200 200 211 191 183 213 204 188 228 207 205 221 229 228 217 209 212 219 211 201 218 241 211 193 216 229 235 237 235 228 229 263 283 159 210 268 265 237 241 245 250 252 242 236 236 235 235 234 235 234 234 236
325 318 318 321 325 331 315 305 325 334 333 334 343 322 247 171 151 146 159 254 242 139 132 171 184 177 173 179 180 182 236 224 173 207 208 204 201 200 245 214 205 211 186 169 213 205 198 213 220 218 221 220 214 222 207 192 213 232 137 130 194 220 232 237 237 239 238 246 255 212 176 265 263 235 237 242 249 259 257 250 245 241 239 236 233 231 231 233
322 320 321 320 330 18 312 288 300 310 313 340 355 342 174 147 142 118 201 252 57 59 32 146 158 162 152 158 181 193 209 186 138 181 179 189 197 193 226 248 256 252 202 202 233 227 213 223 235 222 223 225 216 219 205 198 217 208 131 116 194 153 191 238 235 231 238 235 237 215 188 235 263 246 228 232 235 247 257 258 254 252 249 246 241 235 232 232
318 314 314 315 327 352 283 257 269 292 297 340 349 34 137 139 134 91 177 269 57 17 344 101 146 170 155 149 183 203 204 189 170 149 158 172 184 187 201 255 315 305 243 249 256 262 276 303 325 248 235 239 232 227 214 213 213 153 87 91 348 21 69 15 26 167 238 237 232 224 205 215 257 251 221 235 239 235 249 253 248 249 247 246 245 239 236 234
317 308 304 305 307 296 256 197 195 258 227 356 11 126 139 133 345 178 189 318 41 343 333 92 173 167 162 162 167 197 213 203 167 151 161 152 163 176 191 176 112 149 242 250 255 262 271 285 300 306 311 281 244 234 233 233 200 110 77 121 100 325 348 8 39 151 235 239 225 225 216 214 245 250 215 238 243 225 230 240 242 244 240 241 241 238 238 236
318 306 296 287 282 268 220 177 139 123 127 20 78 134 145 131 252 226 278 355 11 326 350 8 217 169 180 186 168 177 199 192 174 179 180 163 169 179 193 189 159 191 225 223 235 242 244 248 232 248 334 305 240 224 227 245 197 145 140 162 183 219 203 215 214 201 231 242 226 214 210 213 242 254 245 247 249 236 244 253 250 252 249 245 241 237 238 236
320 308 296 277 269 252 198 167 130 117 135 135 113 128 178 230 199 284 334 354 338 306 346 350 322 197 193 205 184 177 191 190 173 174 175 194 215 204 204 210 193 208 226 199 224 235 234 232 210 204 293 223 218 212 206 215 202 189 171 171 195 203 217 225 222 230 237 244 234 195 196 217 247 252 238 239 247 249 259 261 258 262 267 265 255 245 243 241
349 348 342 315 266 207 172 155 135 134 148 143 128 145 259 19 339 315 348 347 323 264 294 344 337 303 194 236 216 164 188 214 175 166 182 190 217 218 211 217 207 201 37 185 229 219 227 234 194 180 178 184 203 218 212 200 204 209 190 189 208 204 228 233 221 235 243 252 235 191 194 211 214 235 222 222 229 227 237 247 249 252 256 259 260 254 250 249
35 38 44 35 47 132 147 147 141 144 152 159 171 239 42 47 5 302 350 340 308 305 318 52 4 316 205 237 301 87 333 224 173 173 202 191 204 215 205 206 197 180 124 219 244 209 228 250 196 192 191 177 195 217 211 210 245 232 186 201 222 217 231 250 248 247 261 280 245 194 223 224 223 268 249 220 231 220 225 236 237 237 241 245 250 252 250 248
46 52 61 53 70 117 141 149 147 147 157 185 227 26 57 50 5 290 336 335 323 328 328 46 49 347 241 154 144 143 360 310 166 170 209 210 224 225 227 225 192 183 179 199 238 195 211 257 356 197 204 192 197 206 197 196 213 203 184 212 222 225 233 249 263 267 271 271 250 212 252 258 269 275 251 244 269 256 236 239 233 229 230 232 238 244 247 244
59 63 68 76 99 123 145 152 149 145 153 226 299 59 96 169 336 328 327 321 310 322 323 343 41 360 342 35 146 193 170 103 147 161 178 193 218 217 226 240 193 185 192 199 234 232 174 258 309 265 234 219 201 203 207 215 216 197 206 219 210 304 319 224 255 256 243 253 245 228 245 245 247 258 222 226 250 252 246 247 245 236 229 228 232 237 240 241
63 69 67 72 97 131 154 156 151 142 145 268 111 86 74 276 330 355 340 315 301 294 334 9 47 305 21 30 358 18 123 151 146 162 182 182 211 200 211 236 199 191 200 199 214 303 112 267 267 225 228 252 68 106 251 254 243 217 42 249 227 253 232 199 232 242 235 250 251 239 244 239 233 250 250 235 242 250 250 247 250 245 233 233 235 237 239 240
45 60 53 41 69 142 157 153 143 138 186 293 89 76 8 289 317 1 3 341 334 315 328 8 9 311 49 29 349 26 33 60 124 145 227 231 261 4 10 330 260 211 213 202 207 219 132 240 262 211 197 189 50 77 220 246 247 192 41 328 287 256 216 208 233 247 241 250 254 248 246 232 218 234 254 257 260 272 277 277 271 256 248 244 234 231 237 242
26 45 41 24 66 142 147 140 135 148 263 29 56 34 283 295 334 1 1 350 351 7 353 355 358 23 87 73 84 56 40 51 57 24 360 322 312 14 23 11 1 350 352 332 243 224 163 197 237 298 32 64 222 183 191 218 231 205 237 246 241 249 268 287 267 227 233 244 248 252 248 232 198 205 227 244 254 260 266 275 280 293 323 317 279 239 238 258
30 51 41 21 90 139 139 133 122 328 309 85 77 75 315 340 353 349 347 352 357 356 7 358 357 4 10 39 81 81 60 92 89 65 88 357 6 46 81 60 38 352 7 16 331 333 228 220 221 249 282 229 233 216 202 218 210 188 223 228 229 231 242 263 246 212 212 229 234 255 256 244 271 293 261 260 271 291 316 327 338 359 7 10 15 25 35 44
33 43 20 6 127 147 148 136 102 32 16 41 50 25 350 348 355 338 340 356 1 333 186 53 3 355 11 21 35 54 32 109 144 152 168 184 124 217 296 62 86 80 38 71 254 215 223 274 265 249 241 244 258 262 241 219 192 195 215 214 231 242 230 242 248 237 231 233 233 257 262 246 250 297 307 321 341 352 349 354 6 7 13 21 21 19 20 19
36 42 31 28 160 170 182 115 121 125 66 22 316 17 355 347 347 333 332 348 357 345 339 26 17 358 20 7 342 2 6 343 177 172 160 173 180 223 292 46 97 112 88 200 219 198 192 254 296 267 270 271 264 274 16 33 96 206 224 206 209 219 218 231 252 280 258 232 237 261 264 249 246 313 314 323 331 332 334 348 3 2 5 11 6 2 360 354
43 53 48 56 136 181 243 19 84 110 96 19 306 48 346 327 327 321 326 341 352 347 335 26 33 2 18 19 350 1 351 341 134 343 59 151 79 61 54 70 113 140 227 134 303 268 229 261 13 329 313 292 257 259 336 5 39 188 257 266 249 238 243 247 251 259 249 240 245 254 262 262 305 321 308 305 312 315 323 344 353 349 346 344 340 342 343 335
27 62 53 42 54 68 38 27 4 33 89 107 339 318 256 280 266 262 303 321 320 322 327 351 349 330 342 39 21 360 338 352 114 334 357 11 34 65 67 107 168 207 202 160 15 356 272 219 107 96 278 267 247 243 228 222 319 326 308 292 281 254 255 261 257 248 248 243 241 245 258 267 277 289 287 295 320 326 324 331 334 331 330 325 320 322 325 323
330 44 59 42 41 46 26 12 353 348 40 65 291 316 268 271 224 212 266 298 303 309 303 304 321 313 289 299 349 348 313 255 206 313 352 335 299 73 48 284 214 235 243 228 191 87 64 242 183 187 228 239 247 260 266 263 261 279 280 271 268 263 260 268 275 264 275 285 261 263 289 289 281 285 290 308 334 322 312 315 318 317 314 310 307 307 309 309
340 33 37 346 26 16 287 343 352 335 340 320 290 115 243 285 296 261 206 277 334 342 304 277 296 301 290 303 312 292 226 252 335 314 283 277 280 272 266 267 256 251 253 241 200 158 146 255 214 209 231 237 244 258 271 277 269 265 265 261 259 257 252 252 254 257 273 289 276 279 296 285 280 287 292 296 295 289 289 293 297 298 296 294 293 292 292 292
24 66 38 21 52 39 350 337 338 330 299 282 318 110 306 316 325 315 221 197 326 338 309 281 287 274 282 296 304 307 339 32 336 290 262 273 297 303 285 278 264 250 237 206 188 172 200 258 227 217 240 248 248 255 263 267 264 259 256 254 253 248 240 240 246 247 250 256 262 272 273 265 265 271 277 279 276 271 271 273 276 278 279 280 280 279 278 279
40 60 42 21 347 357 356 332 321 322 259 252 268 139 215 303 304 302 297 181 291 287 196 247 302 302 297 302 301 294 298 310 296 258 239 262 272 298 304 292 274 258 238 197 205 199 193 255 246 230 247 256 251 250 251 253 256 255 252 251 251 251 249 249 252 251 249 253 258 261 260 258 257 258 264 270 270 268 269 270 270 269 270 271 271 270 269 269
44 21 349 318 274 281 357 331 313 312 284 219 194 88 9 350 342 334 333 271 286 256 165 235 303 321 333 339 330 307 311 329 323 311 307 295 298 316 279 260 305 300 285 264 250 221 196 253 271 263 268 268 261 255 250 246 250 253 253 252 252 256 257 255 254 253 252 254 252 250 254 257 256 251 254 261 266 268 269 267 265 264 264 264 265 265 265 267
45 1 358 340 293 227 36 322 288 298 351 68 16 360 20 32 7 344 312 233 266 286 17 347 333 340 336 315 308 325 346 348 336 329 333 326 318 323 311 306 330 324 303 293 293 227 213 272 296 300 272 270 268 264 261 257 256 255 254 255 253 253 252 247 245 242 242 249 252 250 253 255 252 251 251 253 258 262 262 262 262 262 263 264 264 264 265 266
43 13 21 360 300 93 42 324 282 283 16 42 23 8 10 14 12 359 328 328 15 29 26 5 346 341 314 291 317 350 340 330 321 320 322 314 305 303 295 291 292 287 282 293 293 253 221 253 282 269 262 270 268 266 268 270 264 255 247 243 242 243 244 244 245 244 243 247 251 252 252 251 250 252 253 252 251 251 255 260 263 265 267 267 266 267 267 269